TimeCDT,TemperatureF,Dew PointF,Humidity,Sea Level PressureIn,VisibilityMPH,Wind Direction,Wind SpeedMPH,Gust SpeedMPH,PrecipitationIn,Events,Conditions,WindDirDegrees,DateUTC
12:53 AM,39.9,37.9,93,30.02,10.0,NNE,4.6,-,0.00,Rain,Light Rain,30,2011-10-20 05:53:00
1:53 AM,39.0,37.0,93,30.01,6.0,North,5.8,-,0.01,Rain,Light Rain,10,2011-10-20 06:53:00
2:05 AM,39.2,37.4,93,29.97,6.0,North,8.1,-,0.00,Rain,Light Rain,10,2011-10-20 07:05:00
2:26 AM,39.2,37.4,93,29.96,10.0,Variable,3.5,-,0.00,Rain,Light Rain,0,2011-10-20 07:26:00
2:53 AM,39.0,36.0,89,29.99,7.0,Variable,5.8,-,0.00,Rain,Light Rain,0,2011-10-20 07:53:00
3:13 AM,39.2,35.6,87,29.95,8.0,Variable,4.6,-,0.00,Rain,Light Rain,0,2011-10-20 08:13:00
3:53 AM,37.9,36.0,93,29.98,9.0,Variable,5.8,-,0.00,Rain,Light Rain,0,2011-10-20 08:53:00
4:53 AM,37.9,36.0,93,29.96,9.0,Variable,5.8,-,0.01,Rain,Light Rain,0,2011-10-20 09:53:00
5:32 AM,37.4,35.6,93,29.93,10.0,Variable,5.8,-,0.00,,Overcast,0,2011-10-20 10:32:00
6:53 AM,37.9,33.1,83,29.96,10.0,Variable,3.5,-,N/A,,Overcast,0,2011-10-20 11:53:00
7:53 AM,37.9,33.1,83,29.96,10.0,Variable,4.6,-,N/A,,Overcast,0,2011-10-20 12:53:00
8:53 AM,39.0,32.0,76,29.96,10.0,Variable,6.9,-,N/A,,Overcast,0,2011-10-20 13:53:00
9:53 AM,39.9,32.0,73,29.95,10.0,NNE,8.1,-,N/A,,Overcast,20,2011-10-20 14:53:00
10:53 AM,41.0,33.1,73,29.95,10.0,Variable,6.9,-,N/A,,Overcast,0,2011-10-20 15:53:00
11:53 AM,43.0,30.9,62,29.94,10.0,Variable,6.9,-,N/A,,Mostly Cloudy,0,2011-10-20 16:53:00
12:01 PM,44.6,30.2,57,29.91,10.0,Variable,5.8,-,N/A,,Scattered Clouds,0,2011-10-20 17:01:00
12:15 PM,42.8,30.2,61,29.90,10.0,NNW,8.1,-,N/A,,Mostly Cloudy,330,2011-10-20 17:15:00
12:22 PM,44.6,32.0,61,29.91,10.0,NW,8.1,-,N/A,,Scattered Clouds,320,2011-10-20 17:22:00
12:34 PM,44.6,30.2,57,29.91,10.0,Variable,6.9,-,N/A,,Mostly Cloudy,0,2011-10-20 17:34:00
12:43 PM,44.6,30.2,57,29.90,10.0,Variable,6.9,-,N/A,,Scattered Clouds,0,2011-10-20 17:43:00
12:53 PM,46.0,30.9,56,29.93,10.0,Variable,5.8,-,N/A,,Scattered Clouds,0,2011-10-20 17:53:00
1:53 PM,46.9,30.0,52,29.92,10.0,Variable,6.9,-,N/A,,Scattered Clouds,0,2011-10-20 18:53:00
2:53 PM,48.0,30.0,50,29.91,10.0,Variable,6.9,-,N/A,,Partly Cloudy,0,2011-10-20 19:53:00
3:53 PM,46.9,28.9,50,29.91,10.0,Calm,Calm,-,N/A,,Clear,0,2011-10-20 20:53:00
4:53 PM,46.9,27.0,46,29.92,10.0,Variable,3.5,-,N/A,,Clear,0,2011-10-20 21:53:00
5:53 PM,45.0,26.1,48,29.94,10.0,Calm,Calm,-,N/A,,Clear,0,2011-10-20 22:53:00
7:53 PM,30.9,26.1,82,29.96,10.0,Calm,Calm,-,N/A,,Clear,0,2011-10-21 00:53:00
8:53 PM,28.9,26.1,89,29.97,10.0,Calm,Calm,-,N/A,,Clear,0,2011-10-21 01:53:00
9:53 PM,27.0,24.1,89,29.98,10.0,Calm,Calm,-,N/A,,Clear,0,2011-10-21 02:53:00
10:53 PM,26.1,23.0,88,29.98,10.0,Calm,Calm,-,N/A,,Clear,0,2011-10-21 03:53:00
11:53 PM,25.0,21.9,88,29.98,10.0,Calm,Calm,-,N/A,,Clear,0,2011-10-21 04:53:00